User: anonymous   Login
Location: Okie-Tex Star Party
(36.8978°N, 102.9520°W)
Time: 07:19:39
(UTC-05:00)
Language:

Hamsat - Orbit

View from above orbital plane
View from above orbital plane
View from above satellite
View from above satellite

Ground track
Ground track

The orbit data is extracted from the following two-line orbital elements,

1 28650U 05017B   17293.97860301  .00000387  00000-0  46945-4 0  9990
2 28650  97.6666 264.1595 0025025  75.1505 285.2482 14.88776195674882
Epoch (UTC): 20 October 2017 23:29:11
Eccentricity: 0.0025025
inclination: 97.6666°
perigee height: 584 km
apogee height: 619 km
right ascension of ascending node: 264.1595°
argument of perigee: 75.1505°
revolutions per day: 14.88776195
mean anomaly at epoch: 285.2482°
orbit number at epoch: 67488

The dashed part of the orbit path shows where the satellite is in the earth's shadow,  

DLR